This is the latest recevied weather packets stored in our database for station/object DC4AT. If no packets are shown the sender has not sent any weather packets the latest 10 day(s).
| Time | Temp. | Humidity | Pressure | Rain* | Wind** | Luminosity | Snow |
|---|---|---|---|---|---|---|---|
| 1777766021 | 11.67° C | 78% | 1015.3 hPa | 0 mm | - | 0 W/m² | - |
| 1777765421 | 12.22° C | 73% | 1014.6 hPa | 0 mm | - | 0 W/m² | - |
| 1777764821 | 12.78° C | 71% | 1014.6 hPa | 0 mm | - | 0 W/m² | - |
| 1777764221 | 12.78° C | 71% | 1014.7 hPa | 0 mm | - | 0 W/m² | - |
| 1777763621 | 12.78° C | 70% | 1014.7 hPa | 0 mm | - | 0 W/m² | - |
| 1777763021 | 13.33° C | 71% | 1014.7 hPa | 0 mm | - | 0 W/m² | - |
| 1777762421 | 13.89° C | 67% | 1014.8 hPa | 0 mm | - | 0 W/m² | - |
| 1777761821 | 13.89° C | 65% | 1014.8 hPa | 0 mm | - | 0 W/m² | - |
| 1777761222 | 14.44° C | 64% | 1014.7 hPa | 0 mm | - | 0 W/m² | - |
| 1777760622 | 14.44° C | 64% | 1014.8 hPa | 0 mm | - | 0 W/m² | - |
| 1777760022 | 15° C | 63% | 1014.8 hPa | 0 mm | - | 0 W/m² | - |
| 1777759422 | 15° C | 62% | 1014.8 hPa | 0 mm | - | 0 W/m² | - |
| 1777758822 | 15° C | 63% | 1014.9 hPa | 0 mm | - | 0 W/m² | - |
| 1777758222 | 15.56° C | 63% | 1015 hPa | 0 mm | - | 0 W/m² | - |
| 1777757622 | 16.11° C | 61% | 1015.1 hPa | 0 mm | - | 0 W/m² | - |
| 1777757022 | 16.67° C | 59% | 1015.1 hPa | 0 mm | - | 0 W/m² | - |
| 1777756422 | 16.67° C | 57% | 1015.1 hPa | 0 mm | - | 0 W/m² | - |
| 1777755822 | 16.67° C | 58% | 1015.1 hPa | 0 mm | - | 0 W/m² | - |
| 1777755222 | 16.67° C | 58% | 1015.2 hPa | 0 mm | - | 0 W/m² | - |
| 1777754622 | 16.67° C | 60% | 1015.3 hPa | 0 mm | - | 0 W/m² | - |
| 1777754022 | 16.67° C | 62% | 1015.2 hPa | 0 mm | - | 0 W/m² | - |
| 1777753422 | 17.22° C | 61% | 1015.2 hPa | 0 mm | - | 0 W/m² | - |
| 1777752822 | 17.78° C | 58% | 1015.3 hPa | 0 mm | - | 0 W/m² | - |
| 1777752222 | 18.33° C | 56% | 1015.3 hPa | 0 mm | - | 0 W/m² | - |
| 1777751622 | 18.33° C | 54% | 1015.3 hPa | 0 mm | - | 0 W/m² | - |
* Rain latest hour (hover to see other rain measurements)
** Current wind speed in m/s (hover to see current wind gust speed)